SQ7KHZ-10 Weather Reports


time (UTC)temp
C
wind
direction
speed
KPH
gust
KPH
rain 1hr
cm
rain 24hr
cm
rain mn
cm
humidity
%
barometer
mb
20260504000437 9 111 0.0 0.0 0.00 0.00 0.00 74 1014.6
20260503234400 9 137 0.0 0.0 0.00 0.00 0.00 73 1014.6
20260503232400 9 129 0.0 0.0 0.00 0.00 0.00 76 1014.6
20260503230336 10 139 0.0 0.0 0.00 0.00 0.00 74 1014.6
20260503224323 11 171 0.0 0.0 0.00 0.00 0.00 69 1014.7
20260503222322 10 205 0.0 0.0 0.00 0.00 0.00 74 1014.7
20260503220311 10 135 0.0 0.0 0.00 0.00 0.00 73 1014.7
20260503214234 10 170 0.0 0.0 0.00 0.00 0.00 75 1014.8
20260503212234 11 116 0.0 0.0 0.00 0.00 0.00 74 1014.7
20260503210211 11 127 0.0 0.0 0.00 0.00 0.00 73 1014.7
20260503204158 11 124 0.0 0.0 0.00 0.00 0.00 74 1014.6
20260503202146 12 122 0.0 0.0 0.00 0.00 0.00 71 1014.6
20260503200147 12 154 0.0 0.0 0.00 0.00 0.00 68 1014.6
20260503194134 15 132 0.0 0.0 0.00 0.00 0.00 62 1014.6
20260503192123 15 160 0.0 0.0 0.00 0.00 0.00 62 1014.6
20260503190059 16 118 0.0 0.0 0.00 0.00 0.00 56 1014.5
20260503184047 17 232 0.0 0.0 0.00 0.00 0.00 55 1014.4
20260503182034 17 120 0.0 0.0 0.00 0.00 0.00 50 1014.3
20260503180034 20 166 0.0 0.0 0.00 0.00 0.00 45 1014.2
20260503174034 21 148 0.0 0.0 0.00 0.00 0.00 42 1014.1
20260503171946 22 185 0.0 0.0 0.00 0.00 0.00 37 1014.1
20260503081538 21 98 4.8 4.8 0.00 0.00 0.00 41 1018.4
20260503071515 18 116 4.8 4.8 0.00 0.00 0.00 50 1018.6
20260503053431 11 257 0.0 0.0 0.00 0.00 0.00 70 1018.7
20260503051427 10 122 3.2 3.2 0.00 0.00 0.00 76 1018.8
20260503045423 9 157 0.0 0.0 0.00 0.00 0.00 79 1018.9
20260503043420 8 119 0.0 0.0 0.00 0.00 0.00 84 1018.9
20260503041420 7 131 0.0 0.0 0.00 0.00 0.00 84 1018.8
20260503035420 6 126 0.0 0.0 0.00 0.00 0.00 85 1018.8
20260503033420 6 137 0.0 0.0 0.00 0.00 0.00 87 1018.8
20260503031409 6 135 0.0 0.0 0.00 0.00 0.00 86 1018.9
20260503025408 6 126 0.0 0.0 0.00 0.00 0.00 83 1018.9
20260503023356 6 126 0.0 0.0 0.00 0.00 0.00 85 1018.9
20260503021344 7 125 0.0 0.0 0.00 0.00 0.00 84 1018.9
20260503015344 6 101 0.0 0.0 0.00 0.00 0.00 84 1018.9
20260503013332 6 117 0.0 0.0 0.00 0.00 0.00 86 1019.0
20260503011320 6 116 0.0 0.0 0.00 0.00 0.00 87 1018.9
20260503005308 6 118 0.0 0.0 0.00 0.00 0.00 87 1018.9
20260503003256 7 131 0.0 0.0 0.00 0.00 0.00 87 1019.1